Simultaneous Nadir Overpasses (SNOs) Predictions

Prediction of SNOs between GOES-17 and NOAA-19 Satellite Orbit:

Table of predicted SNOs for the next 14.0 days since TLE Epoch: 12/6/2019
Index Date Time (GOES-17) GOES-17 Lat,Lon NOAA-19 Lat,Lon Distance(km) Time Diff (sec)
1 12/08/2019 02:51:06 -0.04,-137.19 -1.00,-141.35 475.40 80
2 12/09/2019 02:39:26 -0.04,-137.18 -0.36,-138.50 151.04 80
3 12/10/2019 02:25:08 -0.04,-137.18 0.34,-135.67 173.19 80
4 12/11/2019 02:13:29 -0.04,-137.17 0.98,-132.82 497.12 80
5 12/12/2019 14:46:12 0.05,-137.16 0.89,-140.64 397.90 80
6 12/13/2019 14:34:33 0.05,-137.14 0.18,-137.80 74.50 80
7 12/14/2019 14:22:54 0.06,-137.13 -0.48,-134.95 248.85 80
8 12/17/2019 02:46:37 -0.07,-137.07 -0.75,-139.92 326.08 80
9 12/18/2019 02:32:18 -0.07,-137.05 -0.05,-137.08 4.19 80
10 12/19/2019 02:20:39 -0.07,-137.02 0.59,-134.23 319.15 80




NCC Satellite Simultaneous Nadir Overpasses (SNOs) Prediction Service
